DW8587 Weather Reports


time (UTC)temp
C
wind
direction
speed
KPH
gust
KPH
rain 1hr
cm
rain 24hr
cm
rain mn
cm
humidity
%
barometer
mb
20260505041546 13 317 0.0 4.8 0.03 0.03 0.03 82 1011.3
20260505040044 13 245 0.0 1.6 0.00 0.00 0.00 80 1011.4
20260505034540 13 210 0.0 1.6 0.00 0.00 0.00 79 1011.4
20260505033043 13 209 0.0 3.2 0.00 0.00 0.00 77 1011.4
20260505031536 13 209 0.0 4.8 0.00 0.00 0.00 75 1011.4
20260505030034 14 48 1.6 4.8 0.00 0.00 0.00 73 1011.6
20260505024532 14 47 0.0 1.6 0.00 0.00 0.00 73 1011.6
20260505023030 14 36 3.2 6.4 0.00 0.00 0.00 74 1011.8
20260505021528 14 47 3.2 6.4 0.00 0.00 0.00 74 1012.0
20260505020026 14 336 3.2 6.4 0.00 0.00 0.00 73 1012.2
20260505014525 14 338 3.2 4.8 0.00 0.00 0.00 74 1012.4
20260505013023 14 304 1.6 4.8 0.00 0.00 0.00 74 1012.6
20260505011521 14 258 0.0 3.2 0.00 0.00 0.00 74 1012.8
20260505010019 14 258 1.6 6.4 0.00 0.00 0.00 73 1013.0
20260505004518 14 236 1.6 4.8 0.00 0.00 0.00 72 1013.3
20260505003013 15 259 4.8 8.0 0.00 0.00 0.00 72 1013.5
20260505001511 15 314 0.0 3.2 0.00 0.00 0.00 75 1013.9
20260505000010 15 232 0.0 3.2 0.00 0.00 0.00 75 1014.1
20260504234508 15 232 0.0 1.6 0.00 0.00 0.00 74 1014.3
20260504233010 15 232 0.0 3.2 0.00 0.00 0.00 74 1014.4
20260504231504 15 232 0.0 4.8 0.00 0.00 0.00 73 1014.6
20260504230005 15 232 0.0 0.0 0.00 0.00 0.00 74 1014.6
20260504224502 15 232 0.0 1.6 0.00 0.00 0.00 74 1014.8
20260504223101 15 232 1.6 4.8 0.00 0.00 0.00 74 1014.9
20260504221559 15 232 0.0 0.0 0.00 0.00 0.00 73 1014.9
20260504220115 15 232 0.0 3.2 0.00 0.00 0.00 72 1015.1
20260504214558 15 232 0.0 3.2 0.00 0.00 0.00 72 1015.2
20260504213101 15 232 0.0 0.0 0.00 0.00 0.00 71 1015.3
20260504211557 15 232 0.0 1.6 0.00 0.00 0.00 69 1015.4
20260504210156 16 232 0.0 1.6 0.00 0.00 0.00 69 1015.5
20260504204555 16 232 0.0 3.2 0.00 0.00 0.00 68 1015.6
20260504203054 16 232 0.0 3.2 0.00 0.00 0.00 68 1015.6
20260504201553 16 232 0.0 3.2 0.00 0.00 0.00 67 1015.5
20260504200056 16 232 0.0 3.2 0.00 0.00 0.00 66 1015.5
20260504194552 16 232 1.6 3.2 0.00 0.00 0.00 65 1015.3
20260504193051 17 232 0.0 0.0 0.00 0.00 0.00 64 1015.1
20260504191556 17 232 0.0 3.2 0.00 0.00 0.00 62 1015.0
20260504184609 18 232 0.0 3.2 0.00 0.00 0.00 57 1014.8
20260504183053 18 232 0.0 3.2 0.00 0.00 0.00 55 1014.7
20260504181549 19 232 0.0 3.2 0.00 0.00 0.00 55 1014.7
20260504180047 19 232 0.0 3.2 0.00 0.00 0.00 53 1014.6
20260504174546 20 232 0.0 1.6 0.00 0.00 0.00 52 1014.7
20260504173049 20 232 1.6 4.8 0.00 0.00 0.00 49 1014.7
20260504171545 20 241 1.6 6.4 0.00 0.00 0.00 47 1014.7
20260504090104 18 248 4.8 12.9 0.00 0.00 0.00 47 1017.4
20260504081603 17 226 4.8 12.9 0.00 0.00 0.00 47 1017.3